This demonstration page uses our WeatherBlox Daily Observations layout. Learn more.

Left ArrowRight Arrow

Hourly Observations for August 31, 2021

Temp ( °F °C ) Dew Point ( °F °C ) Humidity (%) Winds ( mph kmh ) Pressure ( in mb ) Visibility ( mi km ) Precip ( " mm )
12:56 am 00:56 Clear 74 23.3 67 19.4 79 79 S 14 22 29.71 1006 10 16 0.00 0.00
1:56 am 01:56 Clear 72 22.2 67 19.4 84 84 S 10 17 29.69 1005 10 16 0.00 0.00
2:56 am 02:56 Clear 72 22.2 66 18.9 82 82 SSW 12 19 29.68 1005 10 16 0.00 0.00
3:56 am 03:56 Clear 69 20.6 66 18.9 90 90 undefined N/A 29.68 1005 10 16 0.00 0.00
4:56 am 04:56 Clear 66 18.9 65 18.3 96 96 Calm 29.70 1006 10 16 0.00 0.00
5:56 am 05:56 Clear 67 19.4 66 18.9 97 97 NE 13 20 29.76 1008 10 16 0.00 0.00
6:19 am 06:19 Partly Cloudy 68 20 66 19 94 94 NE 18 30 29.75 1007 9 14 0.00 0.00
6:22 am 06:22 Mostly Cloudy 68 20 66 19 94 94 NE 25 41 29.75 1007 8 13 0.00 0.00
6:46 am 06:46 Cloudy 64 18 63 17 94 94 ENE 18 30 29.77 1008 10 16 0.00 0.00
6:56 am 06:56 Cloudy 65 18.3 63 17.2 93 93 ENE 21 33 29.78 1009 10 16 0.00 0.00
7:24 am 07:24 Cloudy 64 18 61 16 88 88 E 15 24 29.78 1009 10 16 0.00 0.00
7:56 am 07:56 Mostly Cloudy 63 17.2 60 15.6 90 90 E 12 19 29.78 1009 10 16 0.00 0.00
8:05 am 08:05 Partly Cloudy 64 18 61 16 88 88 E 12 19 29.78 1009 10 16 0.00 0.00
8:56 am 08:56 Sunny 65 18.3 61 16.1 87 87 ESE 14 22 29.78 1009 10 16 0.00 0.00
9:56 am 09:56 Sunny 68 20 62 16.7 81 81 SE 10 17 29.78 1009 10 16 0.00 0.00
10:56 am 10:56 Sunny 71 21.7 63 17.2 76 76 SSE 15 24 29.77 1008 10 16 0.00 0.00
11:56 am 11:56 Sunny 74 23.3 64 17.8 71 71 SE 8 13 29.78 1008 10 16 0.00 0.00
12:56 pm 12:56 Sunny 76 24.4 65 18.3 69 69 ESE 12 19 29.76 1008 10 16 0.00 0.00
1:56 pm 13:56 Sunny 78 25.6 67 19.4 69 69 E 10 17 29.75 1008 10 16 0.00 0.00
2:56 pm 14:56 Sunny 80 26.7 68 20 67 67 E 9 15 29.74 1007 10 16 0.00 0.00
3:56 pm 15:56 Sunny 80 26.7 68 20 67 67 E 10 17 29.74 1007 10 16 0.00 0.00
4:56 pm 16:56 Mostly Sunny 81 27.2 68 20 65 65 E 14 22 29.75 1007 10 16 0.00 0.00
5:56 pm 17:56 Mostly Sunny 79 26.1 67 19.4 67 67 E 13 20 29.75 1007 10 16 0.00 0.00
6:56 pm 18:56 Sunny 76 24.4 67 19.4 74 74 ENE 15 24 29.76 1008 10 16 0.00 0.00
7:56 pm 19:56 Sunny 71 21.7 65 18.3 81 81 E 13 20 29.78 1009 10 16 0.00 0.00
8:56 pm 20:56 Clear 69 20.6 64 17.8 84 84 E 12 19 29.80 1009 10 16 0.00 0.00
9:56 pm 21:56 Clear 67 19.4 63 17.2 87 87 E 12 19 29.82 1010 8 13 0.00 0.00
10:56 pm 22:56 Clear 66 18.9 63 17.2 90 90 E 12 19 29.82 1010 10 16 0.00 0.00
11:56 pm 23:56 Clear 65 18.3 63 17.2 93 93 E 12 19 29.82 1010 10 16 0.00 0.00

Powered by AerisWeather